Location: Unspecified
(0.0000°N, 0.0000°E)
Time: 06:33:58
(UTC+00:00)

Explorer 11/Cluster Stage 4 - Pass Details

Date: 24 November 2019
Orbit: 467 x 1259 km, 28.8° (Epoch: 11 December)

Event Time Altitude Azimuth Distance (km) Brightness Sun altitude
Rises 13:27:49 0° 242° (WSW) 2,682 9.8 57.8°
Reaches altitude 10° 13:30:11 10° 244° (WSW) 1,714 9.0 57.4°
Maximum altitude 13:34:01 73° 329° (NNW) 496 6.6 56.7°
Drops below altitude 10° 13:37:35 10° 54° (NE) 1,603 8.0 56.0°
Sets 13:39:44 0° 56° (ENE) 2,488 8.8 55.5°
